User: anonymous   Login
Location: Newark
(35.9031°N, 139.7175°E)
Time: 22:14:38
(UTC+00:00)
Language:

S-56A Canister/Altair - Orbit

View from above orbital plane
View from above orbital plane
View from above satellite
View from above satellite

Ground track
Ground track

The orbit data is extracted from the following two-line orbital elements,

1    82U 61004B   20145.85619970 -.00000013 +00000-0 +26672-4 0  9990
2    82 038.8605 285.7667 1174412 329.6673 024.0814 12.26063649804919
Epoch (UTC): 24 May 2020 20:32:55
Eccentricity: 0.1174412
inclination: 38.8605°
perigee height: 633 km
apogee height: 2499 km
right ascension of ascending node: 285.7667°
argument of perigee: 329.6673°
revolutions per day: 12.26063649
mean anomaly at epoch: 24.0814°
orbit number at epoch: 80491

The dashed part of the orbit path shows where the satellite is in the earth's shadow,  

DLR